Location: Cold Norton
(51.6667°N, 0.6667°E)
Time: 05:35:55
(UTC+00:00)

Aureole 3 Rocket - Pass Details

Date: 18 November 2025
Orbit: 398 x 1690 km, 82.5° (Epoch: 10 December)

Event Time Altitude Azimuth Distance (km) Brightness Sun altitude
Rises 16:56:33 0° 153° (SSE) 2,304 5.9 -8.3°
Reaches altitude 10° 16:58:52 10° 133° (SE) 1,454 4.7 -8.6°
Maximum altitude 17:01:05 18° 86° (E) 1,085 3.7 -8.9°
Drops below altitude 10° 17:03:27 10° 40° (NE) 1,576 4.6 -9.3°
Enters shadow 17:03:34 - 39° (NE) 1,618 4.7 -9.3°
